Back to catalog

DELTA 1 DEB

AlivePO
NORAD 21352·DEBRIS·🇺🇸 United States

Launched Jun 12, 1975 from Vandenberg Space Force Base

Loading…

Next Passes (next 24 hours)

TLE

FreshSource: Space-Track

Epoch: Sep 14, 2026, 14:54 UTC

1 21352U 75052BW  26257.62110646  .00000308  00000-0  71719-3 0  9999
2 21352  99.5325 300.5314 0282004 356.5648 154.1771 13.18708160685872

Track DELTA 1 DEB in real time with AllMySat

Download on the App Store